Piney Island, NC

11:29 AM EST on December 11, 2017 (GMT -0500)
Piney Island

Weather History for KNBT - July, 2013

Change the Weather History Date:

Sunday, July 28, 2013

  Actual Average (KMRH) Record (KMRH)
Temperature  
Mean Temperature 81 °F -  
Max Temperature 88 °F 87 °F 93 °F (2005)
Min Temperature 75 °F 72 °F 63 °F (1975)
Cooling Degree Days 16    
Growing Degree Days 31 (Base 50)    
Moisture  
Dew Point 75 °F    
Average Humidity 81    
Maximum Humidity 94    
Minimum Humidity 63    
Precipitation  
Precipitation 0.14 in - - ()
Sea Level Pressure  
Sea Level Pressure 29.98 in    
Wind  
Wind Speed 8 mph (SW)    
Max Wind Speed 14 mph    
Max Gust Speed 22 mph    
Visibility 10 miles    
Events Rain    
Averages and records for this station are not official NWS values.
T = Trace of Precipitation, MM = Missing Value Source: NWS Daily Summary

Daily Weather History Graph

Daily Weather History Graph

Search for Another Location

Airport or City:

Trip Planner

Search our weather history database for the weather conditions in past years. The results will help you decide how hot, cold, wet, or windy it might be!

Date:

Astronomy

Jul. 28, 2013 Rise Set
Actual Time 6:12 AM EDT 8:11 PM EDT
Civil Twilight 5:44 AM EDT 8:39 PM EDT
Nautical Twilight 5:10 AM EDT 9:13 PM EDT
Astronomical Twilight 4:33 AM EDT 9:50 PM EDT
Moon 11:51 PM EDT (7/28) 12:34 PM EDT (7/28)
Length of Visible Light 14h 55m
Length of Day
13h 59m
Waning Gibbous, 61% of the Moon is Illuminated
Jul 28
Waning Gibbous
Jul 29
Last Quarter
Aug 6
New
Aug 14
First Quarter
Aug 20
Full

Hourly Weather History & Observations

Time (EDT) Temp. Heat Index Dew Point Humidity Pressure Visibility Wind Dir Wind Speed Gust Speed Precip Events Conditions
12:56 AM 79.0 °F - 75.0 °F 88% 29.98 in 10.0 mi SSE 5.8 mph - N/A   Clear
1:56 AM 79.0 °F - 75.0 °F 88% 29.97 in 10.0 mi SSW 6.9 mph - N/A   Scattered Clouds
2:56 AM 78.1 °F - 75.0 °F 90% 29.96 in 9.0 mi South 8.1 mph - 0.00 in Rain Light Rain
3:56 AM 75.9 °F - 73.9 °F 94% 29.94 in 10.0 mi SSE 9.2 mph - 0.09 in Rain Light Rain
4:56 AM 77.0 °F - 75.0 °F 94% 29.92 in 10.0 mi SSE 9.2 mph - 0.00 in   Scattered Clouds
5:56 AM 78.1 °F - 75.0 °F 90% 29.93 in 10.0 mi Calm Calm - 0.00 in   Clear
6:56 AM 78.1 °F - 75.0 °F 90% 29.94 in 10.0 mi NW 3.5 mph - N/A   Overcast
7:56 AM 80.1 °F 85.8 °F 77.0 °F 90% 29.95 in 10.0 mi WNW 5.8 mph - 0.00 in   Overcast
8:28 AM 80.6 °F 87.1 °F 77.0 °F 89% 29.95 in 10.0 mi WNW 10.4 mph - N/A   Mostly Cloudy
8:38 AM 80.6 °F 86.2 °F 75.2 °F 84% 29.95 in 10.0 mi West 12.7 mph - N/A   Partly Cloudy
8:56 AM 81.0 °F 87.3 °F 75.9 °F 85% 29.97 in 10.0 mi West 11.5 mph - N/A   Clear
9:56 AM 81.0 °F 87.3 °F 75.9 °F 85% 29.99 in 10.0 mi West 13.8 mph - 0.01 in   Scattered Clouds
10:56 AM 82.0 °F 87.9 °F 73.9 °F 76% 30.00 in 10.0 mi WNW 10.4 mph - N/A   Partly Cloudy
11:56 AM 84.9 °F 91.4 °F 73.0 °F 67% 30.01 in 10.0 mi West 6.9 mph - N/A   Clear
12:56 PM 87.1 °F 94.5 °F 73.0 °F 63% 29.99 in 10.0 mi West 10.4 mph 20.7 mph N/A   Clear
1:56 PM 82.0 °F 87.9 °F 73.9 °F 76% 29.99 in 5.0 mi SW 8.1 mph - 0.04 in Rain Light Rain
2:56 PM 87.1 °F 96.3 °F 75.0 °F 67% 29.98 in 10.0 mi SSW 8.1 mph - 0.00 in   Clear
3:47 PM 86.0 °F 95.1 °F 75.2 °F 70% 29.97 in 10.0 mi WSW 9.2 mph - 0.00 in Rain Light Rain
3:56 PM 84.9 °F 94.1 °F 75.9 °F 74% 29.99 in 10.0 mi WSW 5.8 mph - 0.00 in Rain Light Rain
4:56 PM 86.0 °F 93.8 °F 73.9 °F 67% 30.00 in 10.0 mi South 13.8 mph - 0.00 in   Clear
5:56 PM 84.9 °F 94.1 °F 75.9 °F 74% 30.00 in 10.0 mi South 13.8 mph 21.9 mph N/A   Clear
6:56 PM 84.0 °F 92.6 °F 75.9 °F 76% 30.01 in 10.0 mi South 13.8 mph - N/A   Clear
7:56 PM 82.9 °F 90.2 °F 75.0 °F 77% 30.01 in 10.0 mi South 11.5 mph 20.7 mph N/A   Clear
8:56 PM 81.0 °F 86.7 °F 75.0 °F 82% 30.03 in 10.0 mi SSW 10.4 mph - N/A   Clear
9:56 PM 81.0 °F 87.3 °F 75.9 °F 85% 30.04 in 10.0 mi South 5.8 mph - N/A   Clear
10:56 PM 80.1 °F 85.4 °F 75.9 °F 87% 30.04 in 10.0 mi South 4.6 mph - N/A   Clear
11:56 PM 79.0 °F - 75.9 °F 90% 30.04 in 10.0 mi South 5.8 mph - N/A   Clear